Weather in Nizhnie Vorota

Ukraine / Zakarpattia District     48°46′16″N   23°05′54″E
temp.,
°C
wind,
m/s
gust,
m/s
humid.,
%
clouds,
%
prec.,
mm/h
press.,
hPa
HPBL,
m
18 may, wed
wed1800:00+7ne3790100 0.0 1020384
03:00+3nne39854 0.0 1021266
06:00+1nne39872 0.0 1024448
09:00+5nne511505 0.0 10251307
12:00+10nne610380 0.0 10261502
15:00+12nne58350 0.0 10261669
18:00+12nne57413 0.0 10271458
21:00+6nne22690 0.0 102935
19 may, thu
thu1900:00+3ne22820 0.0 103129
03:00+2ne22880 0.0 103122
06:00+2ne21875 0.0 103114
09:00+10ese01475 0.0 1030361
12:00+16wsw22282 0.0 10281198
15:00+18wsw33315 0.0 10271565
18:00+16sw33425 0.0 10271044
21:00+9sw117811 0.0 102810
20 may, fri
fri2000:00+6sse118647 0.0 102810
03:00+6sse118876 0.0 102810
06:00+6s2287100 0.0 102722
09:00+12ssw346236 0.0 1026425
12:00+15sw4651100 0.0 1025857
15:00+17sw4649100 0.0 10241044
18:00+17sw455317 0.0 1023963
21:00+11ssw228314 0.0 102218
21 may, sat
sat2100:00+10ssw1182100 0.0 102117
03:00+10ssw1184100 0.0 102018
06:00+10s2288100 0.0 101926
09:00+15s356466 0.0 1016409
12:00+18ssw466095 0.1 1014754
15:00+17sw2680100 1.2 1014884
18:00+14se119987 27.1 101269
21:00+13nne3694100 27.9 1014347
22 may, sun
sun2200:00+9ne1194100 0.0 101621
03:00+6n11960 0.0 101613
06:00+6w11955 0.0 101511
09:00+11wnw497439 0.0 10141293
12:00+12wnw4961100 0.1 10141413
15:00+10wnw2971100 0.2 10151456
18:00+10nw277098 0.0 10151121
21:00+9n258072 0.1 1015510